Location: Newark
(51.3318°N, 0.0053°E)
Time: 12:20:01
(UTC+00:00)

MOZHAYETS 4 - Pass Details

Date: 03 July 2022
Orbit: 660 x 679 km, 98.2° (Epoch: 12 August)

Event Time Altitude Azimuth Distance (km) Brightness Sun altitude
Exits shadow 02:05:42 - 162° (SSE) 2,554 10.3 -11.0°
Reaches altitude 10° 02:06:47 10° 162° (SSE) 2,108 9.9 -11.0°
Maximum altitude 02:11:24 87° 77° (ENE) 682 7.8 -10.6°
Drops below altitude 10° 02:16:02 10° 346° (NNW) 2,113 11.0 -10.3°
Sets 02:18:16 0° 346° (NNW) 3,028 11.8 -10.1°
